Other Public Products
Issued by NWS Grand Forks, ND

Home | Current Version | Previous Version | Text Only | Print | Product List | Glossary On
Versions: 1 2 3 4 5 6 7 8 9 10 11 12 13 14 15 16 17 18 19 20 21 22 23 24 25 26 27 28 29 30 31 32 33 34 35 36 37 38 39 40 41 42 43 44 45 46 47 48 49 50
000
FPUS83 KFGF 200531
OPUFGF
PRAIRIE TO PINES WEATHER ROUNDUP
NATIONAL WEATHER SERVICE EASTERN NORTH DAKOTA/GRAND FORKS ND
1200 AM CDT SAT SEP 20 2014

 **SATELLITE DATA USED TO AUGMENT SKY COVER AT AUTOMATED STATIONS**
 *****  WEATHER ACROSS EASTERN NORTH DAKOTA  *****

CITY           SKY/WX    TMP DP  RH WIND       PRES   REMARKS
GRAND FORKS    CLOUDY    61  54  77 NW9       29.69R
GRAND FORKS AF MOCLDY    59  55  88 N10       29.72R
GRAND CITY NWS   N/A     57 N/A N/A N7          N/A
BUXTON           N/A     60  58  95 NW9         N/A
DEVILS LAKE    CLEAR     57  50  77 N5        29.75S
FARGO          MOCLDY    64  58  80 NW10      29.68R
WAHPETON ARPT  MOCLDY    63  52  67 NW12      29.67R
$$

 *****  WEATHER ACROSS CENTRAL AND WESTERN NORTH DAKOTA  *****

CITY           SKY/WX    TMP DP  RH WIND       PRES   REMARKS
JAMESTOWN      PTCLDY    61  57  87 NW9       29.75R
BISMARCK       PTCLDY    62  53  72 NW6       29.82R
MINOT          CLEAR     58  52  80 SW8       29.79R
MINOT AFB      PTCLDY    75  55  50 NW22      29.62R
GARRISON         N/A     54  51  90 NW7       29.81S
WILLISTON      PTCLDY    54  48  80 CALM      29.83S
DICKINSON      CLEAR     53  46  77 W3        29.86R
HETTINGER      CLEAR     49  44  83 NW6       29.90R
$$

 *****  OTHER OBSERVATIONS NORTHEAST NORTH DAKOTA  *****

CITY           SKY/WX    TMP DP  RH WIND       PRES   REMARKS
WALHALLA       FAIR      55  55 100 NW9       29.73R
LANGDON        FAIR      50  48  93 N5        29.74S
CAVALIER       FAIR      57  54  88 NW10      29.72R
GRAFTON        MOCLDY    55  54  94 NW7       29.71R
CANDO          FAIR      50  48  93 W5        29.77R
FORT TOTTEN    NOT AVBL
ROLLA          FAIR      48  48 100 W3        29.78R
RUGBY          FAIR      50  50 100 W7        29.78R FOG
 ***** THE ABOVE OBSERVATIONS ARE NON NWS ARE NOT QUALITY
        CONTROLLED AND MAY MIS-REPORT RAIN FOR SNOW...
$$

 *****  OTHER OBSERVATIONS SOUTHEAST NORTH DAKOTA *****

CITY           SKY/WX    TMP DP  RH WIND       PRES   REMARKS
COOPERSTOWN    NOT AVBL
VALLEY CITY    FAIR      59  59 100 NW8       29.74R
OAKES            N/A     64  57  77 NW14      29.74R
GWINNER        CLEAR     66  55  68 NW13      29.73R
SHEYENNE NWR     N/A     69  55  61 NW10      29.95S
BUFFALO          N/A     61  56  84 N7          N/A
WYNDMERE         N/A     68  55  64 NW6         N/A
 ***** THE ABOVE OBSERVATIONS ARE NON NWS ARE NOT QUALITY
       CONTROLLED AND MAY MIS-REPORT RAIN FOR SNOW...
$$

  *****  WEATHER ACROSS NORTHERN MINNESOTA  *****

CITY           SKY/WX    TMP DP  RH WIND       PRES   REMARKS
FLAG ISLAND    CLOUDY    57  54  88 NW17      29.60R
WARROAD        CLOUDY    57  54  88 NW10      29.63R
ROSEAU         MOCLDY    57  52  82 NW12      29.65R
HALLOCK        CLOUDY    57  55  94 NW10G16   29.69R
THF RVR FALLS  CLOUDY    63  57  82 NW13      29.67R
HALSTAD          N/A     59  55  87 NW9         N/A
FOSSTON        MOCLDY    61  57  88 NW13      29.66R
BAUDETTE       MOCLDY    59  57  93 NW6       29.59R
WASKISH        FOG       59  57  94 CALM      29.59R VSB 1
CROOKSTON      CLOUDY    61  57  88 N15       29.69R
$$
  *****  WEATHER ACROSS CENTRAL AND WEST MINNESOTA  *****

CITY           SKY/WX    TMP DP  RH WIND       PRES   REMARKS
BEMIDJI        PTCLDY    64  60  90 W12G17    29.60R
PARK RAPIDS    MOCLDY    64  61  90 W12       29.61S
WADENA         PTCLDY    66  61  82 W8        29.62S
DETROIT LAKES  PTCLDY    63  57  82 NW15      29.67R
MOORHEAD       MOCLDY    64  61  88 N17       29.69R
FERGUS FALLS   MOCLDY    63  54  72 NW10      29.66R
ELBOW LAKE     FAIR      65  56  72 NW8       29.65S
MORRIS MN      PTCLDY    66  57  72 W13       29.66R
STAPLES        PTCLDY    64  61  88 W8        29.61S
WHEATON        MOCLDY    64  54  68 W12       29.69R
$$
  *****  WEATHER ELSEWHERE ACROSS MINNESOTA  *****

CITY           SKY/WX    TMP DP  RH WIND       PRES   REMARKS
DULUTH         CLOUDY    65  62  90 W8        29.61F FOG
INTRNTL FALLS  CLOUDY    58  57  97 S3        29.56S
ELY            CLOUDY    59  57  94 CALM      29.58F
CLOQUET        FOG       61  61 100 S3        29.61F VSB 1/4
BRAINERD       FOG       59  59 100 S3        29.60F VSB 1/4
HIBBING        CLOUDY    64  61  90 VRB3      29.59F FOG
ALEXANDRIA     PTCLDY    67  59  75 W13       29.66F
SAINT CLOUD    FOG       60  58  92 SE7       29.66R VSB 3/4
MINNEAPOLIS    MOCLDY    73  67  81 SW9       29.67R
$$

  *****  WEATHER ACROSS SOUTH DAKOTA  *****

CITY           SKY/WX    TMP DP  RH WIND       PRES   REMARKS
SIOUX FALLS    CLOUDY    74  62  66 W7        29.75R
BROOKINGS      NOT AVBL
WATERTOWN      PTCLDY    66  57  72 W6        29.73S
HURON          PTCLDY    63  54  72 NW10      29.75R
SISSETON         N/A     70  53  54 NW13      29.68S
ABERDEEN       MOCLDY    69  53  56 NW16      29.75R
MITCHELL       CLEAR     66  59  78 W6        29.76R
PIERRE         MOCLDY    70  52  52 NW13      29.82R
MOBRIDGE       MOCLDY    60  55  83 NW5       29.80R
RAPID CITY     MOCLDY    66  49  54 NW10      29.97R
$$

  *****  SOME WEATHER IN NEARBY STATES *****

CITY           SKY/WX    TMP DP  RH WIND       PRES   REMARKS
GLASGOW MT     CLEAR     59  50  72 SW5       29.86R
GREAT FALLS MT CLEAR     56  41  57 SW12      30.02S
CHEYENNE WY    PTCLDY    63  41  44 SW9       30.12R
SCOTTSBLUFF NE CLEAR     62  51  67 CALM      29.97R
OMAHA NE       PTCLDY    74  67  78 S15       29.81S
DES MOINES IA  MOCLDY    71  66  84 SW17      29.83S
DAVENPORT IA   CLEAR     66  55  67 S15       29.90F
CHICAGO IL     PTCLDY    65  48  54 S14       29.93F
EAU CLAIRE WI  CLOUDY    68  62  81 S10       29.70F
LA CROSSE WI   MOCLDY    70  60  70 S18       29.75F
$$

  *****  SOME NATIONAL WEATHER *****

CITY           SKY/WX    TMP DP  RH WIND       PRES   REMARKS
LA GUARDIA NY  PTCLDY    60  48  64 SE7       30.34F
RALEIGH NC     CLEAR     64  57  78 E6        30.25S
ATLANTA GA     PTCLDY    70  65  84 E12       30.14F
NEW ORLEANS LA CLEAR     78  67  68 E5        29.95F
OKLAHOMA CITY  PTCLDY    72  66  81 SE8       29.98S
ALBUQUERQUE NM CLEAR     70  56  61 E8        30.09R
SALT LAKE CITY PTCLDY    67  54  63 SE5       30.07R
LOS ANGELES CA PTCLDY    69  63  81 W9        29.88S
BOISE ID       PTCLDY    66  45  46 W5        30.03S
SEATTLE WA     PTCLDY    64  56  75 N7        30.11R
$$

*** WEATHER ACROSS MANITOBA...SASKATCHEWAN AND ONTARIO ***
                ***ONTARIO***

CITY           SKY/WX    TMP DP  RH WIND       PRES   REMARKS
GERALDTON      DRIZZLE   54  54 100 W6        29.54S FOG
THUNDER BAY    PTCLDY    54  54 100 NW3       29.58S FOG
SIOUX LOOKOUT    N/A     61  61 100 W3        29.53
TORONTO        PTCLDY    50  46  87 NW5       30.07F
BIG TROUT LK   CLOUDY    45  43  93 N8        29.58R
PICKLE LAKE    NOT AVBL
DRYDEN         RAIN      57  57 100 W8        29.55R FOG
KENORA         CLOUDY    57  57 100 NW13      29.59R FOG
$$
                *** MANITOBA***

CITY           SKY/WX    TMP DP  RH WIND       PRES   REMARKS
BRANDON        CLOUDY    54  52  94 E5        29.75R
DAUPHIN        CLOUDY    54  52  94 SW6       29.72S
ISLAND LAKE    CLOUDY   N/A N/A N/A N9          N/A
PILOT MOUND    NOT AVBL
THE PAS        MOCLDY    50  46  87 SE3       29.63F
THOMPSON       MOCLDY    28  28 100 CALM      29.66R
WINNIPEG       CLOUDY    54  52  94 NW6       29.71R
LYNN LAKE      CLOUDY    43  37  81 SE5       29.62S
CHURCHILL      CLOUDY    37  36  93 N20       29.62R
GILLAM         PTCLDY    43  37  81 N10       29.64R
$$
                ***SASKATCHEWAN***

CITY           SKY/WX    TMP DP  RH WIND       PRES   REMARKS
ESTEVAN        CLEAR     54  50  87 W7        29.81R
KINDERSLEY     CLOUDY    55  50  82 SE7       29.79F
LLOYDMINSTER   CLOUDY    61  34  36 W18G28    29.77R
PRINCE ALBERT  PTCLDY    57  52  82 W7        29.66S
REGINA         CLEAR     52  48  87 W9        29.79R


USA.gov is the U.S. government's official web portal to all federal, state and local government web resources and services.